K3CHZ Weather Reports


Display with metric or nautical units.
time (UTC)temp
F
wind
direction
speed
MPH
gust
MPH
rain 1hr
in
rain 24hr
in
rain mn
in
humidity
%
barometer
mb
20260502222218 55 309 1.0 3.0 0.00 0.00 0.00 48 1012.2
20260502221719 55 309 0.0 3.0 0.00 0.00 0.00 49 1012.2
20260502221217 55 309 1.0 3.0 0.00 0.00 0.00 47 1012.1
20260502220719 55 306 1.0 3.0 0.00 0.00 0.00 47 1012.1
20260502220217 55 318 0.0 3.0 0.00 0.00 0.00 49 1012.1
20260502215718 55 318 0.0 3.0 0.00 0.00 0.00 47 1012.1
20260502215219 55 318 0.0 3.0 0.00 0.00 0.00 47 1012.1
20260502214718 56 336 0.0 5.0 0.00 0.00 0.00 46 1012.0
20260502214218 56 302 1.0 5.0 0.00 0.00 0.00 46 1012.1
20260502213717 56 313 2.0 5.0 0.00 0.00 0.00 44 1012.0
20260502213219 56 306 2.0 5.0 0.00 0.00 0.00 46 1012.0
20260502212720 56 327 0.0 5.0 0.00 0.00 0.00 46 1012.0
20260502212221 56 310 0.0 2.0 0.00 0.00 0.00 46 1012.0
20260502211721 56 310 1.0 2.0 0.00 0.00 0.00 44 1012.0
20260502211220 56 310 0.0 3.0 0.00 0.00 0.00 47 1011.9
20260502210721 56 310 0.0 3.0 0.00 0.00 0.00 47 1011.8
20260502210221 56 310 1.0 3.0 0.00 0.00 0.00 45 1011.8
20260502205721 56 310 0.0 3.0 0.00 0.00 0.00 45 1011.8
20260502205221 56 310 1.0 3.0 0.00 0.00 0.00 42 1011.8
20260502204721 56 311 1.0 3.0 0.00 0.00 0.00 45 1011.8
20260502204221 56 310 0.0 3.0 0.00 0.00 0.00 46 1011.8
20260502203722 56 310 1.0 3.0 0.00 0.00 0.00 43 1011.8
20260502203221 56 310 1.0 3.0 0.00 0.00 0.00 47 1011.8
20260502202722 57 310 0.0 3.0 0.00 0.00 0.00 43 1011.7
20260502202505 57 310 1.0 3.0 0.00 0.00 0.00 45 1011.8
20260502202003 57 310 2.0 5.0 0.00 0.00 0.00 44 1011.7
20260502201504 57 331 1.0 5.0 0.00 0.00 0.00 43 1011.7
20260502201003 57 310 1.0 3.0 0.00 0.00 0.00 46 1011.7
20260502200221 57 297 1.0 3.0 0.00 0.00 0.00 45 1011.8
20260502195720 57 222 1.0 3.0 0.00 0.00 0.00 45 1011.9
20260502195221 57 334 0.0 3.0 0.00 0.00 0.00 45 1011.9
20260502194721 57 334 1.0 5.0 0.00 0.00 0.00 46 1011.9
20260502194222 57 334 1.0 5.0 0.00 0.00 0.00 42 1012.0
20260502193721 58 309 2.0 5.0 0.00 0.00 0.00 47 1012.1
20260502193221 58 337 1.0 3.0 0.00 0.00 0.00 45 1012.4
20260502192718 58 329 1.0 3.0 0.00 0.00 0.00 44 1012.4
20260502192218 58 326 1.0 3.0 0.00 0.00 0.00 43 1012.5
20260502191718 58 320 1.0 3.0 0.00 0.00 0.00 45 1012.6
20260502191217 58 336 1.0 3.0 0.00 0.00 0.00 44 1012.7
20260502190718 58 336 0.0 3.0 0.00 0.00 0.00 46 1012.7
20260502190218 59 342 0.0 3.0 0.00 0.00 0.00 44 1012.7
20260502185717 59 31 2.0 3.0 0.00 0.00 0.00 48 1012.8
20260502185218 58 42 2.0 3.0 0.00 0.00 0.00 44 1012.9
20260502184718 57 145 1.0 3.0 0.00 0.00 0.00 47 1013.1
20260502184217 57 57 0.0 3.0 0.00 0.00 0.00 43 1013.2
20260502183719 57 18 1.0 3.0 0.00 0.00 0.00 42 1013.1
20260502183217 57 76 0.0 2.0 0.00 0.00 0.00 45 1013.2
20260502182720 57 76 0.0 2.0 0.00 0.00 0.00 43 1013.2
20260502182220 58 86 0.0 2.0 0.00 0.00 0.00 46 1013.4
20260502181720 57 89 0.0 2.0 0.00 0.00 0.00 46 1013.4
20260502181220 57 93 1.0 3.0 0.00 0.00 0.00 47 1013.4
20260502180721 57 93 1.0 3.0 0.00 0.00 0.00 45 1013.4
20260502180221 56 334 2.0 3.0 0.00 0.00 0.00 47 1013.4
20260502170218 56 35 1.0 3.0 0.00 0.00 0.00 47 1013.9
20260502164217 55 289 1.0 3.0 0.00 0.00 0.00 50 1014.1
20260502163718 55 245 1.0 2.0 0.00 0.00 0.00 51 1014.1
20260502163218 55 327 1.0 3.0 0.00 0.00 0.00 53 1014.1
20260502162719 55 327 1.0 3.0 0.00 0.00 0.00 52 1014.1
20260502162221 55 299 2.0 3.0 0.00 0.00 0.00 52 1014.1
20260502161721 55 334 0.0 3.0 0.00 0.00 0.00 48 1014.2
20260502161221 55 336 1.0 3.0 0.00 0.00 0.00 50 1014.3
20260502160721 55 324 0.0 2.0 0.00 0.00 0.00 51 1014.2
20260502160221 55 324 1.0 2.0 0.00 0.00 0.00 54 1014.3
20260502152221 54 92 0.0 3.0 0.00 0.00 0.00 56 1014.7
20260502151722 54 41 0.0 3.0 0.00 0.00 0.00 52 1014.8
20260502151220 54 8 1.0 3.0 0.00 0.00 0.00 55 1014.5
20260502150720 54 334 0.0 3.0 0.00 0.00 0.00 60 1014.5
20260502150220 53 329 0.0 2.0 0.00 0.00 0.00 57 1014.5
20260502130718 48 333 0.0 1.0 0.00 0.00 0.00 71 1014.5
20260502130218 48 241 0.0 0.0 0.00 0.00 0.00 72 1014.5
20260502123718 47 295 0.0 1.0 0.00 0.00 0.00 72 1014.4
20260502123218 47 294 0.0 1.0 0.00 0.00 0.00 72 1014.4
20260502122718 47 294 0.0 2.0 0.00 0.00 0.00 72 1014.3
20260502122218 47 279 0.0 2.0 0.00 0.00 0.00 73 1014.5
20260502121718 46 28 0.0 2.0 0.00 0.00 0.00 74 1014.5
20260502121218 46 56 0.0 1.0 0.00 0.00 0.00 75 1014.6
20260502120718 46 289 0.0 2.0 0.00 0.00 0.00 75 1014.4
20260502120221 46 332 0.0 3.0 0.00 0.00 0.00 75 1014.1
20260502115719 46 312 1.0 3.0 0.00 0.00 0.00 75 1014.1
20260502115217 46 337 0.0 3.0 0.00 0.00 0.00 75 1014.2
20260502114718 46 336 0.0 3.0 0.00 0.00 0.00 75 1014.2
20260502114218 46 344 0.0 2.0 0.00 0.00 0.00 75 1014.4
20260502113718 46 337 0.0 2.0 0.00 0.00 0.00 75 1014.4
20260502113218 46 354 0.0 3.0 0.00 0.00 0.00 74 1014.4
20260502112716 46 346 1.0 3.0 0.00 0.00 0.00 75 1014.3
20260502112215 46 315 0.0 3.0 0.00 0.00 0.00 75 1014.2
20260502111716 46 281 0.0 1.0 0.00 0.00 0.00 75 1014.2
20260502111215 46 326 0.0 1.0 0.00 0.00 0.00 74 1014.1
20260502110715 46 326 0.0 1.0 0.00 0.00 0.00 74 1014.0
20260502110215 46 326 0.0 0.0 0.00 0.00 0.00 74 1014.0
20260502105714 46 326 0.0 0.0 0.00 0.00 0.00 74 1013.8
20260502105216 46 326 0.0 5.0 0.00 0.00 0.00 74 1013.9
20260502104715 46 326 0.0 5.0 0.00 0.00 0.00 74 1013.8
20260502104216 46 323 0.0 3.0 0.00 0.00 0.00 73 1013.9
20260502103715 46 312 1.0 3.0 0.00 0.00 0.00 74 1013.7
20260502103216 47 313 0.0 3.0 0.00 0.00 0.00 74 1013.7
20260502102716 47 312 1.0 2.0 0.00 0.00 0.00 74 1013.7
20260502102221 47 312 0.0 0.0 0.00 0.00 0.00 73 1013.7
20260502101721 47 312 0.0 0.0 0.00 0.00 0.00 73 1013.6
20260502101221 47 312 0.0 3.0 0.00 0.00 0.00 73 1013.5
20260502100721 47 312 0.0 3.0 0.00 0.00 0.00 72 1013.4
20260502100221 47 312 0.0 3.0 0.00 0.00 0.00 72 1013.4
20260502091221 49 307 1.0 3.0 0.00 0.00 0.00 70 1013.0
20260502090722 49 317 2.0 3.0 0.00 0.00 0.00 71 1013.2
20260502090221 49 314 1.0 3.0 0.00 0.00 0.00 70 1013.2
20260502071218 52 316 1.0 3.0 0.00 0.00 0.00 76 1012.6
20260502070718 52 316 1.0 3.0 0.00 0.00 0.00 77 1012.6
20260502070218 52 316 2.0 3.0 0.00 0.00 0.00 78 1012.6
20260502065718 52 316 0.0 1.0 0.00 0.00 0.00 78 1012.6
20260502065218 52 316 0.0 0.0 0.00 0.00 0.00 78 1012.6
20260502064718 52 316 0.0 0.0 0.00 0.00 0.00 79 1012.6
20260502064220 52 316 0.0 1.0 0.00 0.00 0.00 79 1012.6
20260502063719 52 316 0.0 1.0 0.00 0.00 0.00 79 1012.7
20260502063218 52 316 0.0 0.0 0.00 0.00 0.00 80 1012.9
20260502062719 52 316 0.0 0.0 0.00 0.00 0.00 82 1012.9
20260502062221 52 316 0.0 0.0 0.00 0.00 0.00 81 1012.9
20260502061718 52 316 0.0 0.0 0.00 0.00 0.00 82 1013.0
20260502061218 52 316 0.0 0.0 0.00 0.00 0.00 82 1013.0
20260502060718 52 316 0.0 0.0 0.00 0.00 0.00 82 1013.2
20260502060219 52 316 0.0 0.0 0.00 0.00 0.00 81 1013.2
20260502055718 53 316 0.0 0.0 0.00 0.00 0.00 81 1013.1
20260502055218 53 316 0.0 0.0 0.00 0.00 0.00 80 1013.1
20260502054719 53 316 0.0 0.0 0.00 0.00 0.00 80 1013.2
20260502054218 53 316 0.0 0.0 0.00 0.00 0.00 80 1013.0
20260502053718 53 316 0.0 0.0 0.00 0.00 0.00 78 1013.0
20260502053218 53 316 0.0 0.0 0.00 0.00 0.00 78 1013.2
20260502052719 53 316 0.0 0.0 0.00 0.00 0.00 78 1013.2
20260502052218 53 316 0.0 0.0 0.00 0.00 0.00 77 1013.2
20260502051718 53 316 0.0 0.0 0.00 0.00 0.00 77 1013.2
20260502051218 54 316 0.0 0.0 0.00 0.00 0.00 77 1013.1
20260502050719 54 316 0.0 0.0 0.00 0.00 0.00 76 1013.1
20260502050219 54 316 0.0 0.0 0.00 0.00 0.00 75 1013.1
20260502045718 54 316 0.0 0.0 0.00 0.00 0.00 75 1013.0
20260502045218 54 316 0.0 0.0 0.00 0.00 0.00 75 1013.0
20260502044719 54 316 0.0 0.0 0.00 0.00 0.00 75 1013.0
20260502044219 53 316 0.0 0.0 0.00 0.00 0.00 77 1012.9
20260502043719 53 316 0.0 0.0 0.00 0.00 0.00 75 1013.0
20260502043219 53 316 0.0 0.0 0.00 0.00 0.00 76 1013.0
20260502042719 53 316 0.0 0.0 0.00 0.00 0.00 76 1012.9
20260502042218 53 316 0.0 0.0 0.00 0.00 0.00 77 1012.9
20260502041719 53 316 0.0 0.0 0.00 0.00 0.00 77 1012.9
20260502041218 53 316 0.0 0.0 0.00 0.00 0.00 77 1012.9
20260502040720 53 316 0.0 1.0 0.00 0.00 0.00 77 1012.9
20260502040219 54 316 0.0 1.0 0.00 0.00 0.00 76 1012.9
20260502035718 54 316 0.0 0.0 0.00 0.00 0.00 76 1012.7
20260502035218 54 316 0.0 0.0 0.00 0.00 0.00 75 1012.8
20260502034720 54 316 0.0 0.0 0.00 0.00 0.00 74 1012.8
20260502034219 54 316 0.0 0.0 0.00 0.00 0.00 72 1012.7
20260502033719 54 316 0.0 0.0 0.00 0.00 0.00 72 1012.9
20260502033219 54 316 0.0 0.0 0.00 0.00 0.00 73 1012.8
20260502032719 54 316 0.0 0.0 0.00 0.00 0.00 74 1012.5
20260502032221 54 316 0.0 0.0 0.00 0.00 0.00 71 1012.5
20260502031721 54 316 0.0 0.0 0.00 0.00 0.00 73 1012.4
20260502031222 55 316 0.0 0.0 0.00 0.00 0.00 73 1012.0
20260502030721 55 164 0.0 0.0 0.00 0.00 0.00 69 1012.0
20260502030221 55 164 0.0 0.0 0.00 0.00 0.00 67 1011.8
20260502025721 55 164 0.0 0.0 0.00 0.00 0.00 66 1011.8
20260502025223 55 164 0.0 0.0 0.00 0.00 0.00 67 1011.9
20260502024722 55 164 0.0 0.0 0.00 0.00 0.00 65 1011.9
20260502024223 55 164 0.0 0.0 0.00 0.00 0.00 64 1011.9
20260502023722 55 164 0.0 0.0 0.00 0.00 0.00 64 1011.9
20260502023222 55 164 0.0 0.0 0.00 0.00 0.00 65 1011.9
20260502022715 55 164 0.0 0.0 0.00 0.00 0.00 63 1011.9
20260502022215 55 164 0.0 2.0 0.00 0.00 0.00 64 1011.9
20260502021716 56 164 0.0 2.0 0.00 0.00 0.00 63 1011.8
20260502021217 56 164 1.0 3.0 0.00 0.00 0.00 63 1011.8
20260502020717 56 164 1.0 3.0 0.00 0.00 0.00 62 1011.9
20260502020215 56 164 0.0 5.0 0.00 0.00 0.00 61 1011.9
20260502015716 56 164 0.0 5.0 0.00 0.00 0.00 60 1012.0
20260502015215 56 153 0.0 2.0 0.00 0.00 0.00 58 1011.8
20260502014716 56 153 1.0 2.0 0.00 0.00 0.00 57 1011.6
20260502014216 57 153 0.0 2.0 0.00 0.00 0.00 57 1011.6
20260502013716 57 153 0.0 3.0 0.00 0.00 0.00 57 1011.4
20260502013217 57 153 1.0 3.0 0.00 0.00 0.00 56 1011.4
20260502012717 57 153 0.0 3.0 0.00 0.00 0.00 57 1011.3
20260502012219 57 153 1.0 3.0 0.00 0.00 0.00 57 1010.9
20260502011720 58 158 0.0 0.0 0.00 0.00 0.00 57 1011.3
20260502011218 58 158 0.0 0.0 0.00 0.00 0.00 56 1011.2
20260502010719 58 158 0.0 0.0 0.00 0.00 0.00 56 1011.1
20260502010219 58 158 0.0 1.0 0.00 0.00 0.00 56 1011.0
20260502005720 58 158 0.0 1.0 0.00 0.00 0.00 54 1010.9
20260502005219 59 158 0.0 1.0 0.00 0.00 0.00 54 1010.9
20260502004719 59 158 0.0 3.0 0.00 0.00 0.00 55 1010.8
20260502004219 59 158 0.0 3.0 0.00 0.00 0.00 52 1010.8
20260502003719 59 158 1.0 3.0 0.00 0.00 0.00 52 1010.8
20260502003218 60 158 0.0 3.0 0.00 0.00 0.00 50 1010.7
20260502002716 60 158 0.0 0.0 0.00 0.00 0.00 48 1010.8
20260502002216 60 158 0.0 0.0 0.00 0.00 0.00 48 1010.7
20260502001716 60 158 0.0 0.0 0.00 0.00 0.00 47 1010.6
20260502001217 60 158 0.0 0.0 0.00 0.00 0.00 47 1010.5
20260502000716 60 158 0.0 0.0 0.00 0.00 0.00 47 1010.4
20260502000218 61 158 0.0 0.0 0.00 0.00 0.00 46 1010.4
20260501235716 61 158 0.0 0.0 0.00 0.00 0.00 47 1010.2
20260501235216 61 158 0.0 2.0 0.00 0.00 0.00 46 1010.1
20260501234716 61 158 0.0 2.0 0.00 0.00 0.00 45 1010.2
20260501234215 61 158 0.0 2.0 0.00 0.00 0.00 46 1010.2
20260501233717 61 158 0.0 2.0 0.00 0.00 0.00 46 1010.0
20260501233215 61 158 0.0 0.0 0.00 0.00 0.00 45 1010.1
20260501232717 61 158 0.0 3.0 0.00 0.00 0.00 45 1010.2
20260501232220 61 158 1.0 3.0 0.00 0.00 0.00 45 1010.2
20260501231720 61 158 1.0 3.0 0.00 0.00 0.00 44 1010.2
20260501231218 61 158 1.0 3.0 0.00 0.00 0.00 44 1010.2
20260501230722 61 158 0.0 3.0 0.00 0.00 0.00 44 1010.2
20260501230218 61 158 0.0 3.0 0.00 0.00 0.00 45 1010.2
20260501225719 62 158 1.0 3.0 0.00 0.00 0.00 46 1010.3
20260501225218 61 158 0.0 3.0 0.00 0.00 0.00 44 1010.3
20260501224719 61 158 1.0 3.0 0.00 0.00 0.00 45 1010.3
20260501224219 62 158 0.0 0.0 0.00 0.00 0.00 47 1010.2
20260501223720 62 158 0.0 2.0 0.00 0.00 0.00 45 1010.1
20260501223219 62 158 0.0 2.0 0.00 0.00 0.00 43 1010.1
20260501222720 62 158 0.0 2.0 0.00 0.00 0.00 44 1010.3